Change the Weather History Date:

Friday, October 25, 2013

  Actual Average Record
Temperature  
Mean Temperature 36 °F -  
Max Temperature 39 °F 30 °F 41 °F (2012)
Min Temperature 32 °F 26 °F 10 °F (2008)
Degree Days  
Heating Degree Days 30    
Moisture  
Dew Point 33 °F    
Average Humidity 89    
Maximum Humidity 93    
Minimum Humidity 75    
Precipitation  
Precipitation 0.00 in - - ()
Sea Level Pressure  
Sea Level Pressure 29.46 in    
Wind  
Wind Speed 25 mph (ENE)    
Max Wind Speed 33 mph    
Max Gust Speed 41 mph    
Visibility 6 miles    
Events      
Averages and records for this station are not official NWS values.
T = Trace of Precipitation, MM = Missing Value Source: NWS Daily Summary

Daily Weather History Graph

Daily Weather History Graph

Search for Another Location

Airport or City:

Trip Planner

Search our weather history database for the weather conditions in past years. The results will help you decide how hot, cold, wet, or windy it might be!

Date:

Astronomy

Oct. 25, 2013 Rise Set
Actual Time 10:42 AM AKDT 7:28 PM AKDT
Civil Twilight 9:52 AM AKDT 8:18 PM AKDT
Nautical Twilight 8:57 AM AKDT 9:13 PM AKDT
Astronomical Twilight 8:02 AM AKDT 10:07 PM AKDT
Moon No Moon Rise 5:04 PM AKDT (10/25)
Length of Visible Light 10h 26m
Length of Day
8h 45m
Waning Gibbous, 61% of the Moon is Illuminated
Oct 25
Waning Gibbous
Oct 26
Last Quarter
Nov 3
New
Nov 9
First Quarter
Nov 17
Full

Hourly Weather History & Observations

Time (AKDT) Temp. Windchill Dew Point Humidity Pressure Visibility Wind Dir Wind Speed Gust Speed Precip Events Conditions
12:16 AM 33.8 °F 19.9 °F 26.6 °F 75% 29.45 in 10.0 mi NE 31.1 mph 41.4 mph N/A   Overcast
12:36 AM 33.8 °F 20.5 °F 26.6 °F 75% 29.45 in 10.0 mi NE 27.6 mph 36.8 mph N/A   Overcast
12:56 AM 33.8 °F 19.9 °F 26.6 °F 75% 29.44 in 10.0 mi NE 31.1 mph 36.8 mph N/A   Overcast
1:16 AM 33.8 °F 19.4 °F 26.6 °F 75% 29.44 in 10.0 mi NE 33.4 mph 39.1 mph N/A   Overcast
1:36 AM 33.8 °F 20.5 °F 28.4 °F 81% 29.44 in 2.5 mi NE 27.6 mph 35.7 mph N/A   Overcast
1:56 AM 32.0 °F 18.4 °F 28.4 °F 87% 29.44 in 3.0 mi NE 26.5 mph 35.7 mph N/A   Overcast
2:16 AM 32.0 °F 18.4 °F 28.4 °F 87% 29.43 in 1.8 mi NE 26.5 mph 35.7 mph N/A   Overcast
2:36 AM 32.0 °F 17.6 °F 28.4 °F 87% 29.42 in 1.8 mi NE 29.9 mph 34.5 mph N/A   Overcast
2:56 AM 32.0 °F 18.1 °F 28.4 °F 87% 29.41 in 1.5 mi NE 27.6 mph 38.0 mph N/A   Overcast
3:16 AM 33.8 °F 21.0 °F 30.2 °F 87% 29.42 in 1.8 mi NE 25.3 mph 34.5 mph N/A   Overcast
3:36 AM 33.8 °F 21.3 °F 30.2 °F 87% 29.42 in 2.0 mi NE 24.2 mph 31.1 mph N/A   Overcast
3:56 AM 33.8 °F 21.9 °F 30.2 °F 87% 29.42 in 3.0 mi NE 21.9 mph 32.2 mph N/A   Overcast
4:16 AM 33.8 °F 21.9 °F 30.2 °F 87% 29.42 in 5.0 mi NE 21.9 mph 27.6 mph N/A   Overcast
4:36 AM 33.8 °F 21.9 °F 30.2 °F 87% 29.42 in 6.0 mi NE 21.9 mph 27.6 mph N/A   Overcast
4:56 AM 33.8 °F 22.2 °F 30.2 °F 87% 29.42 in 10.0 mi NE 20.7 mph - N/A   Overcast
5:16 AM 33.8 °F 22.5 °F 30.2 °F 87% 29.42 in 9.0 mi NE 19.6 mph 26.5 mph N/A   Overcast
5:36 AM 33.8 °F 21.6 °F 30.2 °F 87% 29.42 in 10.0 mi NE 23.0 mph 28.8 mph N/A   Overcast
5:56 AM 33.8 °F 22.2 °F 30.2 °F 87% 29.42 in 10.0 mi NE 20.7 mph 31.1 mph N/A   Overcast
6:16 AM 33.8 °F 21.3 °F 30.2 °F 87% 29.42 in 7.0 mi NE 24.2 mph 28.8 mph N/A   Overcast
6:36 AM 33.8 °F 21.0 °F 32.0 °F 93% 29.42 in 5.0 mi NE 25.3 mph 31.1 mph N/A   Overcast
6:56 AM 35.6 °F 23.7 °F 32.0 °F 87% 29.41 in 8.0 mi NE 24.2 mph 28.8 mph N/A   Overcast
7:16 AM 35.6 °F 24.2 °F 32.0 °F 87% 29.42 in 5.0 mi NE 21.9 mph 29.9 mph N/A   Overcast
7:36 AM 35.6 °F 23.7 °F 32.0 °F 87% 29.42 in 7.0 mi NE 24.2 mph 29.9 mph N/A   Overcast
7:56 AM 35.6 °F 23.4 °F 32.0 °F 87% 29.42 in 6.0 mi NE 25.3 mph 31.1 mph N/A   Overcast
8:16 AM 35.6 °F 24.0 °F 32.0 °F 87% 29.43 in 3.0 mi NE 23.0 mph 29.9 mph N/A   Overcast
8:36 AM 35.6 °F 24.0 °F 33.8 °F 93% 29.44 in 3.0 mi NE 23.0 mph 28.8 mph N/A   Overcast
8:56 AM 35.6 °F 24.0 °F 32.0 °F 87% 29.44 in 7.0 mi NE 23.0 mph 28.8 mph N/A   Overcast
9:16 AM 35.6 °F 24.2 °F 33.8 °F 93% 29.44 in 10.0 mi NE 21.9 mph 29.9 mph N/A   Overcast
9:36 AM 35.6 °F 24.0 °F 32.0 °F 87% 29.44 in 10.0 mi NE 23.0 mph 28.8 mph N/A   Overcast
9:56 AM 35.6 °F 24.2 °F 33.8 °F 93% 29.44 in 10.0 mi NE 21.9 mph 27.6 mph N/A   Overcast
10:16 AM 35.6 °F 24.5 °F 33.8 °F 93% 29.43 in 10.0 mi NE 20.7 mph 29.9 mph N/A   Overcast
10:36 AM 35.6 °F 23.2 °F 33.8 °F 93% 29.43 in 10.0 mi NE 26.5 mph 32.2 mph N/A   Overcast
10:56 AM 35.6 °F 23.4 °F 33.8 °F 93% 29.43 in 10.0 mi NE 25.3 mph 33.4 mph N/A   Overcast
11:16 AM 37.4 °F 26.4 °F 33.8 °F 87% 29.43 in 10.0 mi NE 23.0 mph 33.4 mph N/A   Overcast
11:36 AM 37.4 °F 26.1 °F 33.8 °F 87% 29.44 in 8.0 mi NE 24.2 mph 32.2 mph N/A   Overcast
11:56 AM 37.4 °F 26.1 °F 33.8 °F 87% 29.44 in 5.0 mi NE 24.2 mph 33.4 mph N/A   Overcast
12:16 PM 37.4 °F 25.9 °F 33.8 °F 87% 29.45 in 9.0 mi ENE 25.3 mph 32.2 mph N/A   Overcast
12:36 PM 37.4 °F 26.1 °F 33.8 °F 87% 29.45 in 9.0 mi ENE 24.2 mph 32.2 mph N/A   Overcast
12:56 PM 37.4 °F 26.1 °F 33.8 °F 87% 29.45 in 3.0 mi ENE 24.2 mph 32.2 mph N/A   Overcast
1:16 PM 37.4 °F 25.6 °F 35.6 °F 93% 29.45 in 4.0 mi ENE 26.5 mph 31.1 mph N/A   Overcast
1:36 PM 37.4 °F 26.1 °F 35.6 °F 93% 29.45 in 3.0 mi ENE 24.2 mph - N/A   Overcast
1:56 PM 37.4 °F 26.1 °F 35.6 °F 93% 29.46 in 3.0 mi ENE 24.2 mph - N/A   Overcast
2:16 PM 37.4 °F 25.9 °F 35.6 °F 93% 29.46 in 1.5 mi ENE 25.3 mph 29.9 mph N/A   Overcast
2:36 PM 37.4 °F 26.4 °F 35.6 °F 93% 29.46 in 2.0 mi ENE 23.0 mph - N/A   Overcast
2:56 PM 37.4 °F 26.4 °F 35.6 °F 93% 29.45 in 1.5 mi ENE 23.0 mph 28.8 mph N/A   Overcast
3:16 PM 37.4 °F 26.4 °F 35.6 °F 93% 29.46 in 3.0 mi ENE 23.0 mph - N/A   Overcast
3:36 PM 37.4 °F 26.4 °F 35.6 °F 93% 29.45 in 3.0 mi ENE 23.0 mph 29.9 mph N/A   Overcast
3:56 PM 37.4 °F 26.4 °F 35.6 °F 93% 29.45 in 3.0 mi ENE 23.0 mph 28.8 mph N/A   Overcast
4:16 PM 37.4 °F 26.6 °F 35.6 °F 93% 29.46 in 4.0 mi ENE 21.9 mph - N/A   Overcast
4:36 PM 37.4 °F 26.4 °F 35.6 °F 93% 29.46 in 3.0 mi ENE 23.0 mph - N/A   Overcast
4:56 PM 37.4 °F 26.4 °F 35.6 °F 93% 29.46 in 3.0 mi ENE 23.0 mph 29.9 mph N/A   Overcast
5:16 PM 37.4 °F 26.9 °F 35.6 °F 93% 29.46 in 3.0 mi ENE 20.7 mph - N/A   Overcast
5:36 PM 37.4 °F 27.5 °F 35.6 °F 93% 29.47 in 5.0 mi ENE 18.4 mph 24.2 mph N/A   Overcast
5:56 PM 37.4 °F 27.5 °F 35.6 °F 93% 29.48 in 7.0 mi ENE 18.4 mph - N/A   Overcast
6:16 PM 37.4 °F 27.5 °F 35.6 °F 93% 29.48 in 5.0 mi ENE 18.4 mph - N/A   Overcast
6:36 PM 37.4 °F 27.5 °F 35.6 °F 93% 29.49 in 5.0 mi ENE 18.4 mph 23.0 mph N/A   Overcast
6:56 PM 37.4 °F 27.5 °F 35.6 °F 93% 29.49 in 5.0 mi ENE 18.4 mph - N/A   Overcast
7:16 PM 37.4 °F 27.2 °F 35.6 °F 93% 29.49 in 3.0 mi ENE 19.6 mph - N/A   Overcast
7:36 PM 37.4 °F 27.5 °F 35.6 °F 93% 29.50 in 3.0 mi ENE 18.4 mph - N/A   Overcast
7:56 PM 37.4 °F 27.2 °F 35.6 °F 93% 29.50 in 4.0 mi ENE 19.6 mph - N/A   Overcast
8:16 PM 37.4 °F 26.9 °F 35.6 °F 93% 29.50 in 3.0 mi ENE 20.7 mph - N/A   Overcast
8:36 PM 37.4 °F 27.2 °F 35.6 °F 93% 29.51 in 3.0 mi ENE 19.6 mph - N/A   Overcast
8:56 PM 37.4 °F 27.2 °F 35.6 °F 93% 29.51 in 3.0 mi ENE 19.6 mph - N/A   Overcast
9:16 PM 39.2 °F 30.2 °F 37.4 °F 93% 29.52 in 6.0 mi East 17.3 mph - N/A   Overcast
9:36 PM 39.2 °F 30.2 °F 35.6 °F 87% 29.52 in 5.0 mi East 17.3 mph - N/A   Overcast
9:56 PM 39.2 °F 29.6 °F 35.6 °F 87% 29.53 in 6.0 mi East 19.6 mph - N/A   Overcast
10:16 PM 39.2 °F 30.2 °F 37.4 °F 93% 29.53 in 7.0 mi East 17.3 mph - N/A   Overcast
10:36 PM 39.2 °F 30.8 °F 35.6 °F 87% 29.54 in 5.0 mi East 15.0 mph - N/A   Overcast
10:56 PM 39.2 °F 30.5 °F 37.4 °F 93% 29.54 in 5.0 mi East 16.1 mph - N/A   Overcast
11:16 PM 39.2 °F 30.2 °F 37.4 °F 93% 29.55 in 4.0 mi East 17.3 mph - N/A   Overcast
11:36 PM 39.2 °F 30.2 °F 37.4 °F 93% 29.55 in 10.0 mi East 17.3 mph - N/A   Overcast
11:56 PM 39.2 °F 29.8 °F 37.4 °F 93% 29.55 in 7.0 mi East 18.4 mph - N/A   Overcast